Home   Weather   South Bend   Past weeks

Flag for USA Past Weather in South Bend, Indiana, USA — Yesterday and Last 2 Weeks

Now
66 °F

Scattered clouds.


Feels Like: 66 °F
Forecast: 59 / 80 °F
Wind: 10 mph from Southeast

Location: Michiana Regional Airport

Current Time: Sep 25, 2016 at 11:43:39 AM

Latest Report: Sep 25, 2016 at 10:54 AM


Visibility: 10 mi

Pressure: 30.13 "Hg

Humidity: 63%

Dew Point: 53 °F

Location of South BendLocation

Past Weather in South Bend — Graph

°F

South Bend Temperature Yesterday

Maximum temperature yesterday: 74 °F (at 3:54 PM)
Minimum temperature yesterday: 59 °F (at 6:54 AM)
Average temperature yesterday: 66 °F

High & Low Weather Summary for the Past Weeks

 TemperatureHumidityPressure
High83 °F (Sep 13, 3:54 PM)100% (Sep 11, 7:54 AM)30.29 "Hg (Sep 11, 7:54 AM)
Low53 °F (Sep 11, 6:54 AM)40% (Sep 19, 5:54 PM)29.80 "Hg (Sep 10, 10:54 AM)
Average68 °F76%30.09 "Hg
* Reported Sep 10 9:54 AM — Sep 25 9:54 AM, South Bend, Weather by CustomWeather, © 2016

Note: Actual official high and low records may vary slightly from our data, if they occured in-between our weather recording intervals... More about our weather records

Advertising

South Bend Weather History for the Previous 24 Hours

Scroll right to see more
 ConditionsComfort  
Time TempWeatherWind HumidityBarometerVisibility
9:54 AM
Sun, Sep 25
62 °FOvercast.12 mph70%30.14 "Hg10 mi
8:54 AM60 °FSunny.12 mph75%30.15 "Hg10 mi
7:54 AM59 °FSunny.10 mph78%30.16 "Hg10 mi
6:54 AM59 °FPassing clouds.10 mph81%30.15 "Hg10 mi
5:54 AM60 °FPassing clouds.8 mph78%30.16 "Hg10 mi
4:54 AM60 °FPassing clouds.10 mph80%30.15 "Hg10 mi
3:54 AM61 °FClear.9 mph81%30.15 "Hg10 mi
2:54 AM62 °FClear.12 mph80%30.16 "Hg10 mi
1:54 AM63 °FClear.12 mph81%30.17 "Hg10 mi
12:54 AM64 °FClear.9 mph81%30.16 "Hg10 mi
11:54 PM
Sat, Sep 24
66 °FClear.9 mph75%30.16 "Hg10 mi
10:54 PM66 °FClear.7 mph78%30.16 "Hg10 mi
9:54 PM66 °FClear.5 mph81%30.15 "Hg10 mi
8:54 PM68 °FClear.5 mph78%30.14 "Hg10 mi
7:54 PM70 °FClear.3 mph73%30.14 "Hg10 mi
6:54 PM73 °FSunny.8 mph64%30.14 "Hg10 mi
5:54 PM74 °FSunny.5 mph67%30.14 "Hg10 mi
4:54 PM74 °FSunny.7 mph67%30.15 "Hg10 mi
3:54 PM74 °FSunny.7 mph69%30.16 "Hg10 mi
2:54 PM72 °FBroken clouds.7 mph71%30.18 "Hg10 mi
1:54 PM72 °FSunny.10 mph71%30.19 "Hg10 mi
12:54 PM70 °FPassing clouds.8 mph73%30.19 "Hg10 mi
11:54 AM66 °FOvercast.9 mph78%30.22 "Hg10 mi
Weather by CustomWeather, © 2016

See weather overviewHow to use our weather pages